{"data":{"norad_id":66113,"intl_designator":"2025-236AD","name":"STARLINK-35491","alt_names":[],"object_type":"PAYLOAD","status":"ACTIVE","operator":null,"country":"US","launch_date":"2025-10-19","launch_site_code":"AFWTR","launch_vehicle":null,"mission":null,"orbit_class":"UNKNOWN","rcs_meters":null,"size_class":null,"mass_kg":null,"dimensions":null,"purposes":["comms"],"wikipedia_slug":null,"has_3d_model":false,"image_url":null,"decayed_at":null,"tle_current":{"epoch":"2026-09-20T07:36:24.981120Z","epoch_age_seconds":116234,"freshness":"FRESH","line1":"1 66113U 25236AD  26263.31695580  .00016331  00000+0  49335-3 0  9991","line2":"2 66113  53.1585 278.3801 0001203  79.5556 280.5582 15.34404352 52769","mean_motion":15.34404352,"eccentricity":0.0001203,"inclination_deg":53.1585,"raan_deg":278.3801,"arg_perigee_deg":79.5556,"mean_anomaly_deg":280.5582,"bstar":0.00049335,"rev_number":5276,"period_min":93.847491902838,"perigee_km":461.86735365172,"apogee_km":463.51325670135,"semimajor_km":6840.8273051765,"source":"CELESTRAK","updated_at":"2026-09-21T09:00:35.805941Z"}}}